Flag for Australia Weather past 2 weeks in Canberra, Australian Capital Territory, Australia

Now
68 °F

Scattered clouds.


Feels Like: 68 °F
Forecast: 56 / 64 °F
Wind: 17 mph from East

Location: Canberra Airport

Current Time: Jan 26, 2015 at 4:12:12 PM

Latest Report: Jan 26, 2015 at 3:30 PM


Visibility: N/A

Pressure: 29.92 "Hg

Humidity: 56%

Dew point: 52 °F

Location of CanberraLocation

Historic Weather in Canberra — Graph

°F

Canberra temperature yesterday

Maximum temperature yesterday: 82 °F (at 1:00 PM)
Minimum temperature yesterday: 59 °F (at 4:30 AM)
Average temperature yesterday: 70 °F

Past Weeks' High & Low Weather Summary

 TemperatureHumidityPressure
High90 °F (Jan 23, 5:00 PM)100% (Jan 13, 8:00 PM)30.07 "Hg (Jan 13, 8:00 PM)
Low48 °F (Jan 18, 4:30 AM)24% (Jan 18, 3:00 PM)29.50 "Hg (Jan 14, 3:30 AM)
Average68 °F67%29.84 "Hg
* Reported Jan 11 3:00 PM — Jan 26 3:00 PM, Canberra, Weather by CustomWeather, © 2014

Note: Actual official high and low records may vary slightly from our data, if they occured in-between our weather recording intervals... More about our weather records

Advertising

Canberra weather history for previous 24 hours

 ConditionsComfort  
Time TempWeatherWind HumidityBarometerVisibility
3:00 PM
Jan 26
70 °FScattered clouds.15 mph57%29.92 "HgN/A
2:00 PM68 °FScattered clouds.15 mph56%29.95 "HgN/A
1:30 PM70 °FBroken clouds.12 mph60%29.95 "HgN/A
1:00 PM70 °FBroken clouds.13 mph60%29.95 "HgN/A
12:30 PM68 °FBroken clouds.9 mph64%29.95 "HgN/A
12:00 PM66 °FBroken clouds.9 mph64%29.95 "HgN/A
11:30 AM63 °FBroken clouds.13 mph68%29.95 "HgN/A
11:00 AM64 °FScattered clouds.7 mph68%29.95 "HgN/A
10:30 AM63 °FBroken clouds.9 mph68%29.98 "HgN/A
10:00 AM64 °FPartly sunny.10 mph68%29.98 "HgN/A
9:30 AM63 °FBroken clouds.12 mph73%29.95 "HgN/A
9:00 AM63 °FBroken clouds.9 mph73%29.98 "HgN/A
8:30 AM59 °FBroken clouds.8 mph77%29.95 "HgN/A
8:00 AM59 °FBroken clouds.9 mph77%29.95 "HgN/A
7:00 AM57 °FScattered clouds.7 mph82%29.95 "HgN/A
6:49 AM57 °FScattered clouds.6 mph82%29.92 "HgN/A
6:30 AM57 °FPartly sunny.5 mph82%29.92 "HgN/A
6:00 AM57 °FPassing clouds.8 mph82%29.92 "HgN/A
5:00 AM57 °FPassing clouds.10 mph82%29.89 "HgN/A
4:30 AM59 °FPassing clouds.9 mph82%29.89 "HgN/A
4:00 AM59 °FOvercast.8 mph82%29.89 "HgN/A
3:30 AM59 °FOvercast.7 mph82%29.89 "HgN/A
3:00 AM59 °FOvercast.6 mph82%29.89 "HgN/A
2:30 AM59 °FOvercast.9 mph82%29.89 "HgN/A
2:00 AM57 °FPassing clouds.8 mph88%29.86 "HgN/A
1:30 AM59 °FPassing clouds.5 mph82%29.86 "HgN/A
1:00 AM57 °FClear.2 mph88%29.86 "HgN/A
12:30 AM59 °FClear.5 mph82%29.86 "HgN/A
12:00 AM59 °FClear.3 mph82%29.86 "HgN/A
11:30 PM
Jan 25
61 °FClear.7 mph72%29.83 "HgN/A
11:00 PM63 °FClear.9 mph59%29.83 "HgN/A
10:30 PM63 °FClear.5 mph42%29.83 "HgN/A
10:00 PM63 °FClear.7 mph45%29.80 "HgN/A
9:30 PM66 °FClear.10 mph40%29.80 "HgN/A
9:00 PM68 °FClear.12 mph38%29.80 "HgN/A
8:30 PM70 °FClear.12 mph38%29.77 "HgN/A
8:00 PM73 °FSunny.13 mph33%29.77 "HgN/A
7:00 PM79 °FSunny.15 mph28%29.74 "HgN/A
6:00 PM79 °FSunny.15 mph28%29.71 "Hg10 mi
5:30 PM81 °FSunny.20 mph26%29.71 "Hg10 mi
5:00 PM82 °FSunny.16 mph28%29.71 "Hg10 mi
4:00 PM82 °FSunny.24 mph30%29.71 "Hg10 mi
Weather by CustomWeather, © 2014

See weather overviewHow to use our weather pages